PulseSat

PulseSat

COSMOS 2475 (743)

Last updated on March 20, 2019, 3:12 a.m. UTC

1 37869U 11064C   19078.64977505  .00000016  00000-0  00000+0 0  9999
2 37869  64.5138 162.6220 0020645 265.3058 103.8633  2.13101892 57381
UTC
Height (km)
Latitude
Longitude
Inclination
Orbital Period

Next 30 passes for location: Hong Kong

Rise time Rise Azimuth (degrees) Set time Set Azimuth (degrees) Duration Max altitude (degrees)

No matching passes for this satellites

PulseSat

PulseSat is the new satellites software and hardware trackering solution by Pulsely.
Satellite Two Line Element Set source: US Air Force Space Command

Download PulseSat for iOS
© 2017 Pulsely Limited